Weather reports worldwide

Advertisment
Coleshill, United Kingdom (3535): temperature & dewpoint: 16.07.2019 03:00:00 - 22.07.2019 03:00:00 (BST)Coleshill, United Kingdom (3535): temperature -20cm & temperature -100cm: 16.07.2019 03:00:00 - 22.07.2019 03:00:00 (BST)Coleshill, United Kingdom (3535): wind speed: 16.07.2019 03:00:00 - 22.07.2019 03:00:00 (BST)Coleshill, United Kingdom (3535): wind direction: 16.07.2019 03:00:00 - 22.07.2019 03:00:00 (BST)Coleshill, United Kingdom (3535): reduced air pressure: 16.07.2019 03:00:00 - 22.07.2019 03:00:00 (BST)Coleshill, United Kingdom (3535): visibility: 16.07.2019 03:00:00 - 22.07.2019 03:00:00 (BST)Coleshill, United Kingdom (3535): precipitation: 16.07.2019 03:00:00 - 22.07.2019 03:00:00 (BST)
Date & Time tt [°C] td [°C] tt -20cm [°C] tt -100cm [°C] ff [km/h] ff [kn] dd ppp [hPa] vv [km] rr [mm]
22.07.2019 03:00:00 17,7 14,8 - - 18 10 SSW 1018,0 45 0,0
22.07.2019 02:00:00 17,7 14,5 - - 21 11 S 1018,0 45 0,0
22.07.2019 01:00:00 17,9 14,3 - - 21 11 S 1018,3 45 0,0
22.07.2019 00:00:00 17,7 14,2 - - 18 10 S 1018,4 45 0,0
21.07.2019 23:00:00 18,3 14,0 - - 18 10 S 1018,8 50 0,0
21.07.2019 22:00:00 19,1 14,4 - - 15 8 S 1018,9 50 0,0
21.07.2019 21:00:00 19,8 14,4 - - 18 10 S 1018,5 45 0,0
21.07.2019 20:00:00 20,1 14,6 - - 16 9 S 1018,4 45 0,0
21.07.2019 19:00:00 20,6 14,2 - - 21 11 SSW 1018,7 50 0,0
21.07.2019 18:00:00 20,6 13,8 - - 18 10 SSW 1018,9 50 0,0
21.07.2019 17:00:00 20,9 13,2 - - 18 10 SSW 1019,2 50 0,0
21.07.2019 16:00:00 21,0 12,8 - - 13 7 SW 1019,2 30 0,0
21.07.2019 15:00:00 20,7 12,6 - - 16 9 SSW 1019,5 40 0,0
21.07.2019 14:00:00 19,9 12,6 - - 18 10 SSW 1019,7 45 0,0
21.07.2019 13:00:00 19,5 11,1 - - 11 6 WSW 1019,6 35 0,0
21.07.2019 12:00:00 18,9 12,5 - - 9 5 WSW 1020,0 45 0,0
21.07.2019 11:00:00 19,0 13,3 - - 11 6 SSW 1019,3 27 0,0
21.07.2019 10:00:00 18,0 12,3 17,9 16,7 11 6 SW 1019,3 45 0,0
21.07.2019 09:00:00 17,0 13,2 - - 8 4 SW 1018,9 30 0,0
21.07.2019 08:00:00 15,5 12,5 - - 11 6 SSW 1018,3 35 0,0
21.07.2019 07:00:00 14,2 12,1 - - 5 3 SW 1018,0 45 0,0
21.07.2019 06:00:00 13,0 11,5 - - 5 3 SE 1017,5 30 0,0
21.07.2019 05:00:00 13,1 11,2 - - 5 3 S 1017,0 35 0,0
21.07.2019 04:00:00 13,2 11,1 - - 5 3 SW 1016,6 45 0,0
21.07.2019 03:00:00 13,9 10,9 - - 5 3 SW 1016,1 50 0,0
21.07.2019 02:00:00 14,5 11,2 - - 5 3 WSW 1016,1 45 0,0
21.07.2019 01:00:00 14,8 11,7 - - 5 3 SW 1015,6 50 0,0
21.07.2019 00:00:00 14,7 11,2 - - 5 3 SW 1015,1 50 0,0
20.07.2019 23:00:00 15,4 10,6 - - 8 4 W 1014,7 45 0,0
20.07.2019 22:00:00 17,0 10,8 - - 9 5 WSW 1013,8 45 0,0
20.07.2019 21:00:00 17,9 11,2 - - 11 6 W 1012,6 50 0,0
20.07.2019 20:00:00 18,5 11,4 - - 15 8 W 1011,6 50 0,0
20.07.2019 19:00:00 19,2 12,9 - - 15 8 W 1010,3 50 0,0
20.07.2019 18:00:00 19,0 14,9 - - 13 7 W 1009,4 45 0,0
20.07.2019 17:00:00 17,5 14,7 - - 11 6 WNW 1009,1 8 0,4
20.07.2019 16:00:00 21,3 13,4 - - 15 8 WSW 1007,5 40 0,0
20.07.2019 15:00:00 22,2 14,9 - - 16 9 SW 1006,7 30 0,0
20.07.2019 14:00:00 20,2 15,3 - - 13 7 SW 1006,1 45 0,0
20.07.2019 13:00:00 20,2 14,0 - - 16 9 SSW 1005,3 45 0,0
20.07.2019 12:00:00 20,1 14,8 - - 13 7 SW 1004,9 40 0,0
20.07.2019 11:00:00 18,5 13,2 - - 15 8 SW 1004,5 45 0,0
20.07.2019 10:00:00 17,7 13,1 17,9 16,7 16 9 SW 1004,0 45 0,0
20.07.2019 09:00:00 17,0 14,6 - - 16 9 SSW 1003,5 30 0,0
20.07.2019 08:00:00 16,8 15,6 - - 16 9 SSW 1003,0 30 0,0
20.07.2019 07:00:00 16,4 15,6 - - 16 9 S 1002,9 24 0,0
20.07.2019 06:00:00 16,3 15,9 - - 15 8 S 1002,8 12 0,6
20.07.2019 05:00:00 16,4 16,0 - - 13 7 S 1003,1 7 0,0
20.07.2019 04:00:00 16,3 16,1 - - 11 6 SSE 1003,4 7 0,0
20.07.2019 03:00:00 16,3 16,0 - - 9 5 S 1004,2 7 0,0
20.07.2019 02:00:00 16,1 15,9 - - 11 6 S 1004,7 7 0,0
20.07.2019 01:00:00 15,9 15,7 - - 9 5 S 1005,2 7 0,0
20.07.2019 00:00:00 15,8 15,5 - - 11 6 S 1005,6 10 0,4
19.07.2019 23:00:00 15,9 15,3 - - 11 6 S 1006,1 9 0,0
19.07.2019 22:00:00 16,0 15,5 - - 13 7 S 1006,4 14 0,4
19.07.2019 21:00:00 16,4 15,7 - - 13 7 S 1006,5 14 0,6
19.07.2019 20:00:00 17,2 16,5 - - 15 8 S 1006,6 13 0,8
19.07.2019 19:00:00 17,8 17,1 - - 15 8 S 1006,2 7 1,6
19.07.2019 18:00:00 18,8 17,2 - - 21 11 S 1006,4 18 0,2
19.07.2019 17:00:00 19,3 17,5 - - 18 10 S 1006,5 7 0,0
19.07.2019 16:00:00 19,0 17,5 - - 18 10 S 1006,9 18 0,0
19.07.2019 15:00:00 17,8 16,6 - - 15 8 SSE 1007,1 28 0,0
19.07.2019 14:00:00 17,3 15,7 - - 16 9 S 1007,8 35 0,0
19.07.2019 13:00:00 16,5 15,3 - - 21 11 S 1007,8 30 0,0
19.07.2019 12:00:00 14,6 14,2 - - 16 9 SSE 1008,6 17 0,2
19.07.2019 11:00:00 14,1 13,8 - - 16 9 SSE 1009,1 4,0 2,0
19.07.2019 10:00:00 14,3 13,6 18,2 16,7 13 7 SSE 1009,8 8 0,0
19.07.2019 09:00:00 14,0 13,6 - - 8 4 SSE 1010,4 13 1,0
19.07.2019 08:00:00 13,0 12,4 - - 8 4 S 1010,9 4,9 1,2
19.07.2019 07:00:00 13,0 12,0 - - 5 3 S 1010,8 19 0,0
19.07.2019 06:00:00 11,9 11,2 - - 8 4 S 1011,0 14 0,0
19.07.2019 05:00:00 11,0 10,3 - - 5 3 S 1011,3 16 0,0
19.07.2019 04:00:00 11,6 10,4 - - 11 6 S 1011,6 24 0,0
19.07.2019 03:00:00 11,7 10,2 - - 9 5 S 1011,7 28 0,0
19.07.2019 02:00:00 11,4 9,6 - - 5 3 SSE 1011,7 45 0,0
19.07.2019 01:00:00 12,3 9,2 - - 5 3 S 1012,0 45 0,0
19.07.2019 00:00:00 13,2 9,5 - - 4 2 S 1012,0 28 0,0
18.07.2019 23:00:00 13,9 8,6 - - 2 1 WNW 1011,6 50 0,0
18.07.2019 22:00:00 15,6 8,1 - - 2 1 WSW 1011,3 50 0,0
18.07.2019 21:00:00 17,9 8,2 - - 13 7 W 1010,8 50 0,0
18.07.2019 20:00:00 19,4 7,7 - - 16 9 WSW 1010,3 50 0,0
18.07.2019 19:00:00 19,7 9,0 - - 11 6 WSW 1010,0 45 0,0
18.07.2019 18:00:00 19,8 8,4 - - 11 6 WSW 1009,8 50 0,0
18.07.2019 17:00:00 20,2 8,5 - - 15 8 WSW 1009,8 40 0,0
18.07.2019 16:00:00 20,3 9,3 - - 15 8 W 1009,6 50 0,0
18.07.2019 15:00:00 21,4 9,6 - - 16 9 W 1009,5 35 0,0
18.07.2019 14:00:00 - - - - - - - - 30 0,0
18.07.2019 13:00:00 - - - - - - - - 40 0,0
18.07.2019 12:00:00 - - - - - - - - 40 0,0
18.07.2019 11:00:00 17,1 12,4 - - 9 5 WNW 1009,3 50 0,0
18.07.2019 10:00:00 15,4 12,7 18,7 16,7 5 3 W 1009,1 35 0,0
18.07.2019 09:00:00 13,8 12,9 - - 9 5 NW 1009,1 16 0,4
18.07.2019 08:00:00 15,3 13,0 - - 11 6 WNW 1008,6 14 0,0
18.07.2019 07:00:00 15,6 14,6 - - 8 4 SW 1007,9 3,7 0,0
18.07.2019 06:00:00 15,7 14,1 - - 13 7 SSW 1007,7 28 0,0
18.07.2019 05:00:00 15,3 13,3 - - 11 6 S 1007,9 25 0,0
18.07.2019 04:00:00 15,8 13,1 - - 15 8 S 1008,1 40 0,0
18.07.2019 03:00:00 16,0 12,5 - - 13 7 S 1008,5 35 0,0
18.07.2019 02:00:00 15,5 12,2 - - 11 6 S 1009,3 28 0,0
18.07.2019 01:00:00 16,0 11,6 - - 13 7 S 1009,6 40 0,0
18.07.2019 00:00:00 16,8 11,8 - - 11 6 S 1009,9 40 0,0
17.07.2019 23:00:00 17,1 12,3 - - 9 5 SSW 1010,3 40 0,0
17.07.2019 22:00:00 17,7 13,2 - - 9 5 S 1010,6 40 0,0
17.07.2019 21:00:00 18,4 12,5 - - 5 3 SW 1010,6 35 0,0
17.07.2019 20:00:00 18,5 12,9 - - 5 3 SW 1010,9 40 0,0
17.07.2019 19:00:00 19,6 12,7 - - 16 9 WSW 1011,0 35 0,0
17.07.2019 18:00:00 21,4 11,2 - - 11 6 SW 1011,0 35 0,0
17.07.2019 17:00:00 23,1 12,3 - - 9 5 SW 1011,4 26 0,0
17.07.2019 16:00:00 21,9 12,4 - - 13 7 SSW 1011,9 30 0,0
17.07.2019 15:00:00 22,2 12,0 - - 9 5 SW 1012,5 40 0,0
17.07.2019 14:00:00 22,1 12,6 - - 11 6 SW 1012,7 35 0,0
17.07.2019 13:00:00 21,9 13,2 - - 9 5 SW 1013,3 28 0,0
17.07.2019 12:00:00 21,8 13,5 - - 9 5 SW 1013,7 29 0,0
17.07.2019 11:00:00 21,3 13,4 - - 8 4 SW 1013,8 30 0,0
17.07.2019 10:00:00 20,7 14,3 18,2 16,7 4 2 WSW 1014,2 23 0,0
17.07.2019 09:00:00 19,6 14,1 - - 2 1 N 1014,8 21 0,0
17.07.2019 08:00:00 17,1 14,5 - - 2 1 NNW 1014,9 18 0,0
17.07.2019 07:00:00 13,7 13,3 - - 0 0 N 1014,9 10 0,0
17.07.2019 06:00:00 12,9 12,5 - - 2 1 S 1015,3 11 0,0
17.07.2019 05:00:00 12,4 11,9 - - 4 2 S 1015,5 7 0,0
17.07.2019 04:00:00 12,5 12,0 - - 4 2 S 1015,8 5 0,0
17.07.2019 03:00:00 13,5 13,1 - - 4 2 SE 1016,3 11 0,0
17.07.2019 02:00:00 13,1 12,2 - - 0 0 N 1016,6 5 0,0
17.07.2019 01:00:00 14,7 13,8 - - 5 3 S 1017,0 12 0,0
17.07.2019 00:00:00 14,7 13,5 - - 2 1 N 1017,2 14 0,0
16.07.2019 23:00:00 15,2 12,8 - - 4 2 N 1017,1 20 0,0
16.07.2019 22:00:00 17,2 13,4 - - 0 0 N 1017,0 25 0,0
16.07.2019 21:00:00 19,9 14,1 - - 4 2 N 1016,8 30 0,0
16.07.2019 20:00:00 20,6 14,1 - - 8 4 N 1016,9 35 0,0
16.07.2019 19:00:00 22,1 14,9 - - 4 2 NNW 1017,0 24 0,0
16.07.2019 18:00:00 21,5 15,6 - - 0 0 N 1017,1 20 0,0
16.07.2019 17:00:00 21,8 14,0 - - 2 1 ENE 1017,3 35 0,0
16.07.2019 16:00:00 22,6 14,4 - - 8 4 NNE 1017,7 23 0,0
16.07.2019 15:00:00 21,9 14,6 - - 2 1 ENE 1018,1 27 0,0
16.07.2019 14:00:00 22,5 13,9 - - 2 1 NW 1018,2 30 0,0
16.07.2019 13:00:00 21,7 13,8 - - 4 2 NW 1018,6 27 0,0
16.07.2019 12:00:00 20,4 14,0 - - 5 3 NW 1018,9 24 0,0
16.07.2019 11:00:00 22,3 13,5 - - 4 2 WSW 1018,9 30 0,0
16.07.2019 10:00:00 21,2 13,7 18,0 16,5 5 3 WSW 1019,3 23 -
16.07.2019 09:00:00 19,5 13,7 - - 5 3 WSW 1019,6 35 0,0
16.07.2019 08:00:00 16,0 12,9 - - 2 1 S 1020,0 18 0,0
16.07.2019 07:00:00 13,1 11,5 - - 8 4 SSE 1020,0 24 0,0
16.07.2019 06:00:00 11,8 10,7 - - 5 3 SSE 1020,0 14 0,0
16.07.2019 05:00:00 11,6 10,6 - - 4 2 S 1020,1 14 0,0
16.07.2019 04:00:00 11,3 10,4 - - 4 2 SSE 1020,0 13 0,0
16.07.2019 03:00:00 11,6 10,1 - - 4 2 SSE 1020,5 11 0,0

tt = temperature
td = dewpoint
tt -20cm = temperature -20cm
tt -100cm = temperature -100cm
ff = wind speed
dd = wind direction
ppp = reduced air pressure
vv = visibility
rr = precipitation

Next stations